EHI
0 0 0 0 0 0 0 0 0 0 0 0 0 0 0 0 0 0 0 0 0 0 0 0 0 1 2 3 3 1 0 0 1 1 1 0 0 1 2 1 0 0 0 0
0 0 0 0 0 0 0 0 0 0 0 0 0 0 0 0 0 0 0 0 0 0 0 0 0 1 2 3 3 2 1 0 0 0 0 0 1 2 2 1 0 0 0 0
0 0 0 0 0 0 0 0 0 0 0 0 0 0 0 0 0 0 0 0 0 0 0 0 0 1 2 3 3 3 1 0 0 0 0 0 1 1 1 1 0 0 0 0
0 0 0 0 0 0 0 0 0 0 0 0 0 0 0 0 0 0 0 0 0 0 0 0 0 0 1 3 3 3 2 1 0 0 0 0 0 0 0 0 0 0 0 0
0 0 0 0 0 0 0 0 0 0 0 0 0 0 0 0 0 0 0 0 0 0 0 0 0 0 1 3 3 3 3 2 1 0 0 0 0 0 0 0 0 0 0 0
0 0 0 0 0 0 0 0 0 0 0 0 0 0 0 0 0 0 0 0 0 0 0 0 0 0 1 3 3 3 3 2 1 0 0 0 0 0 0 0 0 0 0 0
0 0 0 0 0 0 0 0 0 0 0 0 0 0 0 0 0 0 0 0 0 0 0 0 0 0 1 2 3 4 3 2 1 0 0 0 0 0 0 0 0 0 0 0
0 0 0 0 0 0 0 0 0 0 0 0 0 0 0 0 0 0 0 0 0 0 0 0 0 0 0 1 2 3 2 1 0 0 0 0 0 0 0 0 0 0 0 0
0 0 0 0 0 0 0 0 0 0 0 0 0 0 0 0 0 0 0 0 0 0 0 0 0 0 0 0 1 1 1 0 0 0 0 0 0 0 0 0 0 0 0 0
0 0 0 0 0 0 0 0 0 0 0 0 0 0 0 0 0 0 0 0 0 0 0 0 0 0 0 0 0 0 0 0 0 0 0 0 0 0 0 0 0 0 0 0
0 0 0 0 0 0 0 0 0 0 0 0 0 0 0 0 0 0 0 0 0 0 0 0 0 0 0 0 0 0 0 0 0 0 0 0 0 0 0 0 0 0 0 0
0 0 0 0 0 0 0 0 0 0 0 0 0 0 0 0 0 0 0 0 0 0 0 0 0 0 0 0 0 0 0 0 0 0 0 0 0 0 0 0 0 0 0 0
0 0 0 0 0 0 0 0 0 0 0 0 0 0 0 0 0 0 0 0 0 0 0 0 0 0 0 0 0 0 0 0 0 0 0 0 0 0 0 0 0 0 0 0
0 0 0 0 0 0 0 0 0 0 0 0 0 0 0 0 0 0 0 0 0 0 0 0 0 0 0 0 0 0 0 0 0 1 1 0 0 0 0 0 0 0 0 0
0 0 0 0 0 0 0 0 0 0 0 0 0 0 0 0 0 0 0 0 0 0 0 0 0 0 0 0 0 0 0 1 1 2 2 1 0 0 0 0 0 0 0 0
0 0 0 0 0 0 0 0 0 0 0 0 0 0 0 0 0 0 0 0 0 0 0 0 0 0 0 0 0 0 1 2 2 3 2 1 1 0 0 0 0 1 1 1
0 0 0 0 0 0 0 0 0 0 0 0 0 0 0 0 0 0 0 0 0 0 0 0 0 0 0 0 0 0 1 2 2 2 3 3 2 1 1 1 1 2 2 2
0 0 0 0 0 0 0 0 0 0 0 0 0 0 0 0 0 0 0 0 0 0 0 0 0 0 0 0 0 0 0 1 1 2 3 3 3 2 2 2 3 3 3 3
0 0 0 0 0 0 0 0 0 0 0 0 0 0 0 0 0 0 0 0 0 0 0 0 0 0 0 0 0 0 0 0 1 3 3 2 2 2 2 3 3 3 3 2
0 0 0 0 0 0 0 0 0 0 0 0 0 0 0 0 0 0 0 0 0 0 0 0 0 0 0 0 0 0 0 0 2 3 3 2 2 2 2 2 2 2 1 1
0 0 0 0 0 0 0 0 0 0 0 0 0 0 0 0 0 0 0 0 0 0 0 0 0 0 0 0 0 0 0 0 1 2 2 3 3 2 2 1 1 1 0 0
0 0 0 0 0 0 0 0 0 0 0 0 0 0 0 0 0 0 0 0 0 0 0 0 0 0 0 0 0 0 0 0 0 1 1 2 2 1 1 1 1 0 0 0
0 0 0 0 0 0 0 0 0 0 0 0 0 0 0 0 0 0 0 0 0 0 0 0 0 0 0 0 0 0 0 0 0 0 0 1 1 0 0 0 0 0 0 0
0 0 0 0 0 0 0 0 0 0 0 0 0 0 0 0 0 0 0 0 0 0 0 0 0 0 0 0 0 0 0 0 0 0 0 0 0 0 0 0 0 0 0 0
0 0 0 0 0 0 0 0 0 0 0 0 0 0 0 0 0 0 0 0 0 0 0 0 0 0 0 0 0 0 0 0 0 0 0 0 0 0 0 0 0 0 0 0
0 0 0 0 0 0 0 0 0 0 0 0 0 0 0 0 0 0 0 0 0 0 0 0 0 0 0 0 0 0 0 0 0 0 0 0 0 0 0 0 0 0 0 0
Wind_Speed
4 6 5 4 5 4 4 5 4 2 2 5 6 6 5 6 7 7 7 6 5 4 4 4 3 3 2 2 1 1 1 2 2 1 1 1 1 1 2 2 2 2 2 1
7 6 3 2 4 5 6 6 4 3 2 4 4 6 5 6 7 7 7 7 6 5 5 4 4 4 3 2 1 2 2 2 2 1 0 0 1 1 2 1 2 2 1 1
6 2 3 5 6 7 7 6 4 3 2 4 4 6 6 5 5 5 6 6 5 5 5 5 5 4 3 3 2 2 2 2 2 2 1 1 2 1 1 1 1 2 1 1
4 2 4 6 6 7 5 3 4 5 6 3 5 5 5 5 6 6 6 6 5 5 5 5 5 5 4 3 3 3 3 3 2 2 2 2 1 1 1 1 1 1 1 1
3 3 5 6 3 5 1 2 4 5 6 5 6 7 3 4 5 5 5 5 5 4 5 5 5 5 4 4 3 3 4 4 3 3 2 1 2 1 1 1 2 1 2 2
2 1 2 2 1 3 4 5 4 4 5 7 5 7 3 3 3 3 4 5 5 4 5 5 5 5 5 5 4 4 4 4 3 3 2 2 2 1 2 1 2 1 1 1
4 4 3 2 4 6 6 6 4 5 6 4 2 5 4 2 0 2 2 4 4 5 5 5 6 6 5 5 5 4 4 4 3 3 2 2 2 1 1 1 1 1 1 1
5 5 4 3 4 4 6 7 5 4 4 2 4 6 1 3 1 1 2 4 5 5 5 5 6 5 5 5 5 4 4 4 3 2 2 2 2 1 1 1 1 1 1 1
4 2 3 1 1 4 5 5 4 6 5 6 5 3 2 3 2 2 3 5 5 5 5 5 5 5 5 5 5 4 4 4 3 2 2 1 1 1 1 1 1 1 1 1
3 3 3 3 4 1 3 2 4 6 6 6 5 5 3 5 4 4 4 5 5 5 5 5 5 5 5 4 4 4 4 4 3 3 2 1 1 0 0 0 1 1 1 1
5 6 4 5 5 4 5 5 5 6 6 6 5 1 2 2 3 3 4 4 5 5 5 4 4 4 4 5 5 4 4 3 3 3 2 2 1 1 0 0 1 1 1 1
3 5 5 4 1 1 4 5 7 7 6 7 7 3 4 1 2 2 3 3 4 4 4 4 4 5 5 5 5 5 4 4 3 3 3 2 2 2 1 0 1 1 1 1
3 5 5 5 6 5 5 4 6 6 7 7 8 3 5 2 2 2 3 3 3 4 4 4 4 5 5 5 5 5 5 4 3 3 3 3 2 2 2 1 1 1 1 2
4 6 7 6 2 2 5 6 7 9 8 9 10 9 4 3 3 3 3 3 3 4 4 4 4 5 5 5 5 5 5 4 4 3 3 3 3 2 2 1 1 1 2 2
4 6 6 6 4 5 8 8 9 11 12 11 10 9 8 5 4 3 3 3 3 4 4 4 4 4 5 5 5 5 5 4 4 4 4 3 3 3 2 2 2 2 2 2
4 5 5 6 6 7 10 10 11 12 12 13 12 11 6 3 3 3 3 4 4 3 3 3 4 4 5 5 5 5 5 5 5 5 4 3 3 3 3 2 2 2 2 2
5 5 5 6 4 7 10 9 10 10 9 10 11 7 3 3 3 3 3 4 3 3 3 3 4 3 4 4 5 5 5 5 5 5 4 4 4 3 3 3 3 3 3 3
6 6 4 4 5 9 1 1 4 7 8 9 8 5 3 3 2 3 2 3 3 3 3 2 3 3 3 3 4 4 4 5 5 5 5 4 4 4 4 4 4 4 3 3
7 6 5 5 6 7 4 3 4 6 6 5 6 5 3 1 3 3 1 1 2 2 2 2 2 2 3 3 3 4 4 4 5 5 5 5 5 4 4 4 4 4 3 3
5 7 6 6 6 6 1 4 2 5 6 2 3 3 3 3 5 1 1 1 2 1 1 1 1 2 2 2 3 4 4 4 4 4 4 4 5 5 5 5 4 3 3 3
7 7 9 9 8 6 1 3 4 6 1 3 2 2 3 4 3 3 1 1 1 0 0 0 1 2 2 2 3 4 4 4 4 4 4 4 4 4 4 4 3 3 3 3
7 6 8 7 8 5 4 5 5 2 3 1 1 2 3 2 2 1 1 1 1 1 0 1 1 1 2 3 4 4 4 3 3 3 4 4 4 3 3 4 3 3 3 3
7 6 4 6 4 2 3 3 2 2 2 2 2 2 2 3 3 2 2 2 2 2 1 1 1 2 2 3 4 4 3 3 3 3 4 4 4 3 3 4 4 3 3 3
5 4 6 6 6 5 5 5 4 4 4 3 3 3 4 4 4 4 3 2 2 2 2 2 2 3 2 2 3 4 3 3 3 4 3 3 3 3 3 3 3 3 3 3
5 6 7 9 7 5 6 6 5 4 3 3 3 4 4 4 4 4 4 4 3 3 3 2 3 3 3 3 3 3 3 3 4 3 3 3 3 3 3 3 3 3 3 3
8 9 9 8 6 7 6 4 4 4 4 4 4 4 4 4 5 4 4 4 4 4 3 3 3 3 3 2 2 2 2 3 4 4 3 3 3 3 3 3 2 1 2 2
Wind_Direction
189 211 213 217 232 267 238 228 224 193 173 214 227 233 216 198 207 215 211 206 201 197 185 169 158 151 139 126 124 108 114 111 106 110 123 108 104 84 69 50 46 71 68 40
195 210 227 231 201 218 224 225 219 172 168 227 236 249 238 211 214 221 222 212 207 198 188 173 166 156 144 133 134 123 111 100 97 69 72 106 94 83 71 52 51 52 67 57
220 129 165 192 191 208 222 236 231 213 185 209 246 241 214 201 206 215 226 225 217 211 198 182 173 162 155 145 135 123 109 103 94 94 76 86 100 94 87 62 51 42 48 48
219 193 196 206 211 233 227 222 224 212 228 221 235 265 206 198 201 210 214 215 216 208 200 183 174 168 166 153 142 133 118 108 95 96 90 97 85 84 51 11 43 46 52 54
185 187 210 219 226 234 251 166 203 223 247 255 224 257 212 172 219 215 207 207 208 199 190 181 175 170 162 146 137 130 118 112 103 97 97 102 88 76 65 44 47 44 62 52
206 175 253 249 187 192 153 159 164 205 237 245 228 249 253 177 219 213 197 198 195 185 178 173 164 158 146 137 134 130 123 109 100 104 107 101 94 94 84 53 38 36 65 55
194 190 181 207 185 170 206 224 223 214 215 232 160 242 263 88 101 267 217 192 180 172 170 167 162 160 149 143 137 135 132 121 115 115 111 110 100 92 83 43 28 20 37 45
215 194 171 201 238 217 213 242 260 271 260 240 198 239 174 92 37 269 198 173 163 166 167 165 162 161 155 153 152 151 146 136 128 127 118 109 101 87 62 30 3 348 5 20
237 187 124 139 253 245 213 226 281 282 275 267 232 219 209 160 162 146 147 156 163 166 169 169 164 164 161 161 164 166 163 157 150 147 136 118 105 88 53 4 354 345 355 357
263 238 158 150 175 127 290 230 220 243 260 259 243 239 219 170 161 150 157 164 165 165 170 170 168 169 165 161 166 171 173 171 167 167 163 145 138 102 353 350 9 342 339 339
241 242 188 188 215 204 177 202 231 246 262 273 269 240 80 184 174 180 170 172 173 175 175 173 172 170 165 165 169 175 178 177 173 178 174 179 179 198 215 286 344 315 310 303
217 253 236 216 123 318 240 234 232 249 245 252 272 276 101 180 188 199 194 184 179 178 177 173 172 173 173 177 178 180 182 184 185 188 188 195 188 201 214 248 281 287 300 307
184 230 230 197 181 188 210 214 233 255 264 249 250 244 120 174 202 204 210 204 191 185 181 181 180 185 184 185 188 188 193 192 189 191 197 202 203 208 212 217 233 272 284 285
232 238 248 263 300 222 224 216 220 234 246 250 247 261 244 242 240 227 213 203 201 196 189 193 195 195 192 191 196 197 201 195 191 196 206 207 213 215 218 218 227 249 259 266
239 247 245 264 274 259 253 245 230 235 249 261 267 268 272 278 268 246 218 201 198 197 199 200 202 202 198 198 203 203 202 198 195 200 208 210 210 209 217 216 229 241 247 256
233 249 247 251 249 249 253 248 241 241 250 255 264 269 279 288 269 240 221 209 209 206 205 206 206 207 207 203 205 206 205 202 201 203 205 200 211 208 216 227 233 241 248 253
209 230 246 258 256 258 250 239 232 233 234 244 254 265 257 239 252 251 238 226 229 228 220 214 212 215 214 211 209 210 207 202 205 209 208 200 206 211 219 228 234 237 244 250
221 224 240 253 246 245 278 101 238 239 245 250 257 264 256 270 290 275 254 242 251 246 240 238 230 222 219 211 207 202 199 202 207 211 210 207 208 212 217 226 232 237 239 240
231 223 228 237 251 265 244 203 213 235 246 243 241 242 236 220 230 221 220 247 257 254 250 239 234 231 214 201 193 192 199 205 209 212 214 212 212 215 218 225 233 236 240 243
199 226 232 229 246 256 174 139 197 247 241 174 227 232 216 219 246 232 127 248 259 268 264 243 230 217 214 202 191 200 206 214 219 220 223 221 221 221 224 227 232 232 235 246
185 202 222 234 244 259 93 142 191 232 330 107 214 234 222 244 305 13 16 259 299 322 318 221 223 228 223 217 209 218 224 232 235 232 224 217 222 225 226 227 226 224 225 237
206 206 214 224 234 242 125 170 219 322 39 136 227 244 241 267 314 317 282 260 261 276 259 234 244 254 240 227 225 233 243 247 232 223 220 216 220 221 218 214 216 215 214 223
224 231 233 229 249 32 164 225 289 307 272 267 249 255 249 255 264 270 266 263 254 253 249 253 265 269 249 233 237 245 250 240 223 220 220 220 218 216 213 209 208 209 216 229
212 225 238 246 247 247 244 244 250 259 264 269 259 258 250 254 260 260 258 257 256 250 245 248 255 262 260 250 244 250 245 225 220 223 222 220 217 213 210 211 214 218 222 230
228 208 233 248 252 253 242 240 243 255 262 265 269 269 263 260 262 259 255 252 249 244 242 244 251 261 267 259 248 240 225 215 219 222 217 216 215 211 209 211 221 229 233 248
219 224 236 255 260 258 262 249 240 243 253 261 269 275 272 265 264 262 261 258 252 248 247 248 252 259 264 256 250 242 225 220 218 216 213 212 212 212 211 210 213 219 242 246